Location: *
(46.3500°N, 10.9000°E)
Time: 23:35:36
(UTC+00:00)

Vanguard 2 - Pass Details

Date: 19 April 2021
Orbit: 552 x 2938 km, 32.9° (Epoch: 12 May)

Event Time Altitude Azimuth Distance (km) Brightness Sun altitude
Rises 16:23:37 0° 266° (W) 5,308 13.6 17.2°
Reaches altitude 10° 16:28:35 10° 253° (WSW) 3,829 12.9 16.3°
Maximum altitude 16:35:09 21° 209° (SSW) 2,391 10.6 15.2°
Drops below altitude 10° 16:39:54 10° 161° (SSE) 2,652 10.1 14.3°
Sets 16:42:37 0° 145° (SE) 3,325 10.4 13.9°
